Regional Weather Roundup
Issued by NWS

Home | Current Version | Previous Version | Graphics & Text | Print | Product List | Glossary On
Versions: 1 2 3 4 5 6 7 8 9 10 11 12 13 14 15 16 17 18 19 20 21 22 23 24 25 26 27 28 29 30 31 32 33 34 35 36 37 38 39 40 41 42 43 44 45 46 47 48 49 50
000
ASUS43 KTOP 042308
RWRKS

WEATHER ROUNDUP FOR KANSAS
NATIONAL WEATHER SERVICE GOODLAND KS
600 PM CDT FRI SEP 04 2015

NOTE:  "FAIR" INDICATES FEW OR NO CLOUDS BELOW 12,000 FEET WITH NO
SIGNIFICANT WEATHER AND/OR OBSTRUCTIONS TO VISIBILITY.

KSZ001>006-013>018-027>032-041>047-050000-
NORTHWEST KANSAS

CITY           SKY/WX    TMP DP  RH WIND       PRES   REMARKS
GOODLAND       SUNNY     94  46  19 S15G21    29.86F
HAYS           SUNNY     99  57  25 S25G33    29.81S HX  97
HILL CITY      SUNNY     98  57  25 S16G26    29.80F HX  97
RUSSELL        SUNNY     96  60  30 S24G36    29.82S HX  96
$$

KSZ061>065-074>080-084>089-050000-
SOUTHWEST KANSAS

CITY           SKY/WX    TMP DP  RH WIND       PRES   REMARKS
DODGE CITY     SUNNY     95  53  24 S25G35    29.87S
ELKHART          N/A     92  56  29 S17         N/A
GARDEN CITY    MOSUNNY   95  55  26 S22G29    29.85F
GREAT BEND     SUNNY     97  61  30 S28G33    29.83S HX  97
LIBERAL        SUNNY     97  55  24 S24       29.88S HX  95
PRATT          MOSUNNY   91  55  29 MISG      29.89S
$$

KSZ066>073-081>083-090>101-050000-
SOUTHEAST KANSAS

CITY           SKY/WX    TMP DP  RH WIND       PRES   REMARKS
CHANUTE        SUNNY     88  69  53 S12       29.95S
COFFEYVILLE    SUNNY     89  72  56 S7        29.93F HX  96
HUTCHINSON     SUNNY     94  60  32 S17G29    29.87S
MEDICINE LODGE   N/A     95  60  31 S15G23    29.86S HX  95
NEWTON         SUNNY     91  64  40 S18       29.93S
PARSONS        SUNNY     88  72  58 S6        29.95S
WICHITA INTL   MOSUNNY   92  64  39 S15G22    29.88F
WICHITA JABRA  SUNNY     89  66  46 S14G23    29.90S
WICHITA MCCONL SUNNY     91  67  44 SE17      29.90S
WINFIELD       SUNNY     91  66  43 S13       29.91F
$$

KSZ007>012-019>026-033>040-048>060-102>105-050000-
NORTHEAST KANSAS

CITY           SKY/WX    TMP DP  RH WIND       PRES   REMARKS
CONCORDIA      SUNNY     92  64  39 S18G28    29.85S
EMPORIA        SUNNY     88  67  49 S16       29.91F
LAWRENCE       SUNNY     89  67  47 S14       29.92S
MANHATTAN      SUNNY     93  64  38 S16       29.86F
MARYSVILLE     SUNNY     90  64  43 S12G24    29.87S
OLATHE IND     SUNNY     87  68  52 S13       29.95F
OLATHE EXE     SUNNY     86  68  54 S9        29.95S
SALINA         SUNNY     94  63  35 S20G26    29.85S HX  95
TOPEKA BILLARD SUNNY     90  68  48 SE18      29.91S
TOPEKA FORBES  SUNNY     90  68  48 S16       29.92S
$$



USA.gov is the U.S. government's official web portal to all federal, state and local government web resources and services.